Wind_Speed
8 7 4 3 3 0 4 6 11 14 13 17 17 14 17 9 8 10 25 31 30 25 20 16 13 12 12 12 12 12 12 14 14 17 18 18 17 18 19 20 19 19 17 18 17 15 17 18 18
8 9 4 3 3 2 5 10 18 17 14 20 23 22 24 21 18 21 25 33 28 26 19 17 15 13 13 13 12 12 12 13 15 16 17 16 17 18 19 19 19 19 17 17 15 14 17 17 18
6 5 4 3 3 2 5 12 11 12 13 15 12 14 10 19 14 17 32 32 32 27 20 19 17 16 15 14 13 13 13 14 15 16 16 17 16 18 18 17 18 18 16 16 14 13 16 18 17
2 2 4 2 3 5 11 12 18 14 8 18 15 14 22 31 17 30 37 35 28 24 23 19 16 17 15 15 14 14 14 14 15 16 17 16 16 16 15 15 15 14 13 13 13 13 17 18 15
7 1 3 2 3 7 14 11 13 15 12 18 22 15 12 23 34 32 29 30 26 24 24 21 18 17 16 15 15 15 15 15 16 17 16 17 16 14 14 15 15 15 15 13 12 14 18 17 18
3 2 2 3 3 14 12 8 13 13 16 23 23 18 7 26 32 26 21 25 25 24 24 21 19 17 17 16 16 16 15 15 16 17 17 17 16 16 16 16 15 13 13 12 12 16 17 17 17
4 2 3 5 14 13 13 9 13 13 19 19 17 12 6 20 35 26 29 30 24 23 23 22 20 18 17 16 17 17 16 16 17 16 16 17 16 16 17 15 14 13 12 11 13 16 17 18 17
4 3 1 2 10 10 9 9 13 20 12 25 20 9 7 22 33 33 28 28 30 25 24 21 20 18 17 17 15 16 16 16 16 15 16 16 17 16 16 16 14 14 13 13 13 14 16 16 14
4 4 2 4 8 10 16 9 6 11 15 15 9 16 16 30 27 31 22 24 30 26 22 23 21 17 15 17 15 15 15 16 16 16 16 16 18 16 14 14 14 12 11 15 16 14 14 13 11
4 3 7 8 5 3 15 11 10 9 11 19 19 19 26 22 32 28 24 25 24 25 23 25 21 16 16 16 17 17 17 16 15 16 16 11 13 12 11 12 13 9 6 8 7 8 6 7 11
4 3 6 7 16 15 9 12 5 13 9 23 22 19 19 25 26 22 23 34 27 25 24 25 20 21 18 20 20 18 13 14 13 16 15 11 12 11 10 13 10 7 5 11 10 7 4 4 7
3 14 11 4 16 7 14 13 9 11 15 25 22 21 20 16 14 15 24 30 28 29 24 24 20 20 16 17 16 18 17 14 15 14 14 13 16 12 11 6 7 9 10 9 9 9 8 3 3
7 8 14 16 22 16 8 13 7 9 26 21 16 11 19 16 19 27 34 32 32 28 24 23 18 15 15 16 18 21 11 13 13 9 9 11 12 9 14 10 12 9 3 4 3 4 6 2 11
1 6 14 14 7 13 17 9 7 4 23 22 19 12 12 15 15 31 29 32 30 28 22 21 14 14 15 16 13 18 13 14 13 12 12 12 14 15 12 7 5 10 4 9 6 10 8 7 8
6 6 9 10 6 5 17 10 9 15 21 21 18 14 13 11 28 23 28 31 33 28 22 21 14 13 16 18 14 10 14 11 14 14 9 10 10 8 12 7 5 7 7 10 7 5 8 9 10
1 1 4 7 4 9 8 5 12 17 17 18 16 13 14 16 21 28 32 32 33 28 24 21 16 12 14 15 7 16 21 17 9 10 9 6 8 10 3 5 0 4 8 3 13 14 9 13 11
2 2 4 7 4 7 1 5 7 19 20 17 14 9 13 13 19 25 33 31 35 27 25 21 19 17 12 12 9 10 10 14 13 14 9 8 5 4 1 3 3 3 6 2 3 4 10 16 14
6 4 2 8 8 16 0 4 4 9 11 16 15 10 14 17 13 24 30 34 31 25 22 27 21 14 12 10 10 10 13 12 13 10 10 8 6 5 5 7 1 1 3 5 9 10 7 6 5
8 9 9 10 9 7 12 4 0 9 9 9 10 7 10 15 19 27 32 34 29 25 25 23 25 19 14 14 9 10 11 11 8 10 8 6 6 2 1 2 2 3 4 7 7 10 15 5 5
10 5 7 12 10 7 9 5 3 4 3 2 7 7 2 14 14 23 31 28 29 25 28 25 24 22 16 10 5 6 6 4 10 9 8 6 4 2 3 5 4 2 6 5 6 9 15 7 5
8 4 8 7 8 1 2 5 2 0 2 3 5 4 3 2 13 19 28 28 30 27 31 28 23 20 19 13 8 9 8 6 9 8 7 6 5 4 3 1 3 1 1 3 4 9 11 14 13
4 9 11 13 9 3 5 1 3 6 9 6 6 7 2 3 7 16 27 30 32 33 30 27 24 18 15 16 13 12 14 8 9 9 8 7 7 6 3 1 2 3 3 3 5 9 11 13 18
6 17 7 8 8 6 2 4 3 4 10 15 15 12 4 6 3 14 18 29 31 34 34 32 25 19 18 17 12 10 10 8 9 9 10 13 8 5 6 3 3 4 4 1 6 7 11 10 14
25 18 11 4 2 3 10 5 7 13 25 28 16 12 9 3 3 6 17 26 30 31 32 32 28 23 19 17 13 12 12 15 11 8 8 4 7 8 8 8 8 7 6 4 1 7 6 8 10
20 12 4 1 2 4 5 6 12 17 16 17 19 13 10 5 2 7 10 9 30 30 29 31 31 25 21 18 16 15 12 10 8 8 11 7 7 9 8 7 7 8 3 6 2 8 5 6 9
17 12 6 6 4 2 3 2 6 14 19 14 17 13 9 9 6 3 21 19 16 24 31 29 30 28 23 20 19 14 10 10 7 5 6 9 9 7 9 11 9 7 6 3 5 6 4 6 8
7 4 10 7 1 4 2 2 11 4 5 12 13 13 13 9 7 6 7 17 17 4 29 30 31 27 24 22 20 17 15 10 9 10 6 7 9 10 10 13 13 10 11 10 8 5 5 6 10
6 5 3 2 4 3 5 3 5 4 4 11 13 14 19 15 13 9 9 18 28 6 17 30 27 27 27 23 21 19 16 12 9 10 9 6 5 7 12 11 10 10 10 9 9 6 5 6 8
3 3 5 5 5 5 5 5 9 11 4 8 12 16 17 16 21 9 11 18 23 28 21 24 24 24 26 26 24 19 15 14 12 11 9 6 3 2 8 9 8 9 10 9 11 13 11 10 9
6 7 7 4 4 4 5 3 4 15 23 18 15 18 20 22 18 13 18 21 24 21 26 18 24 22 27 20 27 23 20 17 14 12 12 10 8 5 4 4 5 9 7 10 11 11 11 7 11
Wind_Direction
279 284 298 306 337 193 108 81 88 89 61 77 82 80 83 59 110 122 128 146 137 139 139 135 135 130 124 122 121 114 110 107 102 101 100 102 106 104 101 101 101 100 98 99 99 94 99 100 95
283 292 141 344 340 326 89 81 87 89 86 75 81 80 70 76 91 114 127 141 136 132 141 136 134 132 127 125 122 116 115 110 109 109 111 109 105 105 103 103 104 105 99 99 100 96 107 106 102
265 249 99 143 285 244 125 96 96 91 96 87 82 79 97 118 81 113 133 134 131 133 135 131 129 128 130 124 123 121 120 117 118 112 113 108 106 108 110 110 108 107 102 99 103 102 111 112 106
264 237 72 138 264 270 105 108 92 92 87 98 97 72 89 109 103 124 124 131 130 130 128 125 126 132 131 122 124 125 124 122 122 116 114 115 112 115 115 110 109 106 110 108 107 109 117 114 97
250 316 43 305 249 125 112 118 100 109 119 100 96 102 93 101 120 121 113 126 126 129 128 129 126 125 128 127 129 130 128 127 126 125 126 122 117 115 116 114 109 103 114 119 112 117 122 117 97
350 66 16 248 257 105 115 134 107 96 117 104 107 106 113 133 121 127 109 128 124 132 128 124 122 124 127 130 130 129 129 131 131 131 130 124 118 109 109 111 109 105 110 113 115 115 123 120 102
118 75 228 278 125 121 138 143 121 138 128 117 122 117 147 100 134 143 126 135 133 133 130 129 128 124 128 132 132 131 133 131 130 130 129 123 111 107 108 109 106 103 106 115 113 116 127 126 121
97 126 134 305 148 145 168 138 133 140 132 130 124 139 154 137 132 146 141 137 137 131 125 127 127 129 129 129 131 132 129 125 124 128 130 122 114 114 108 109 114 115 116 113 113 116 122 128 125
123 79 127 261 174 153 119 200 148 148 141 137 122 137 154 136 137 152 156 140 131 135 134 128 127 130 132 132 132 127 125 125 127 124 127 125 121 122 117 118 113 110 114 109 104 116 132 138 140
159 123 185 262 297 278 170 127 131 137 156 114 124 134 161 157 148 153 140 128 133 136 147 143 140 140 126 137 132 125 123 120 126 134 133 129 118 113 125 114 85 93 112 112 119 130 124 163 139
146 136 244 235 267 280 201 134 125 138 145 138 144 154 165 141 163 157 136 140 144 142 152 149 138 140 141 137 135 131 137 141 145 128 129 133 134 134 125 111 100 130 195 173 167 203 149 111 164
227 160 140 264 245 268 163 147 159 180 162 143 155 160 147 144 152 146 122 141 137 138 134 140 150 157 155 144 156 154 150 147 152 136 130 147 123 120 142 103 160 92 142 157 171 214 257 299 165
212 193 161 190 237 238 184 154 141 123 125 134 138 141 151 154 163 129 131 141 137 142 132 135 151 167 167 166 156 151 167 159 141 135 157 152 157 145 165 91 131 181 140 184 156 202 212 212 116
175 244 130 161 210 249 206 129 102 144 130 135 145 161 170 156 131 124 131 136 132 137 137 143 127 118 181 193 172 170 154 136 138 120 133 135 125 133 152 160 163 214 191 197 138 175 187 139 127
231 213 113 142 202 275 101 128 131 130 141 145 162 174 154 143 131 129 133 128 133 137 147 144 135 128 126 136 115 163 177 168 141 127 137 128 129 122 146 166 248 213 250 207 240 241 217 155 146
159 40 151 132 158 309 194 106 156 142 160 153 168 176 153 133 126 129 132 131 134 133 141 154 163 150 138 135 109 122 140 151 142 135 117 106 115 120 156 220 180 346 310 327 254 271 181 198 174
104 221 198 125 57 301 24 134 109 180 158 163 172 162 134 127 132 132 137 135 142 139 150 155 153 150 137 127 124 146 144 156 153 140 133 114 120 102 145 181 359 357 350 349 31 103 71 204 211
191 197 222 64 36 341 304 146 17 20 170 171 171 157 141 133 141 138 135 140 142 145 148 163 149 150 150 151 110 136 148 132 149 146 144 144 153 115 40 31 59 294 64 39 21 37 25 1 156
116 119 109 100 49 15 330 124 270 21 45 3 172 101 151 147 148 146 134 141 145 148 157 155 160 156 170 170 152 140 154 147 162 161 164 161 132 120 149 27 131 111 1 13 16 16 1 54 40
91 119 79 73 29 36 324 243 344 7 3 23 12 28 176 147 150 139 137 143 153 156 158 165 162 159 165 156 172 158 154 136 172 158 165 162 149 232 7 109 86 297 298 27 32 16 353 356 30
112 101 137 129 163 173 204 249 285 108 209 283 317 288 349 8 149 148 150 154 159 158 159 164 171 176 173 175 166 172 127 133 169 164 184 186 186 253 303 279 163 145 198 2 28 7 17 9 7
100 110 139 160 168 118 34 210 256 253 267 222 233 232 249 312 217 157 159 162 163 173 170 173 178 183 179 186 187 179 189 176 189 208 200 206 182 211 206 63 217 341 321 228 7 13 21 23 17
137 132 146 126 76 112 259 266 237 164 241 240 205 206 198 260 195 171 170 162 170 172 181 179 182 174 183 196 191 178 179 189 196 198 226 220 201 200 211 190 191 277 281 348 346 337 11 12 26
126 113 85 75 61 86 198 217 190 198 206 211 212 195 190 201 253 262 184 165 170 168 178 180 177 176 184 188 186 184 206 179 177 192 186 179 218 202 218 208 194 212 246 233 288 343 352 355 25
120 126 127 248 36 234 193 200 243 225 224 219 206 210 180 158 235 249 208 153 168 169 166 174 176 176 180 187 180 183 173 176 185 184 164 183 198 216 215 231 210 244 240 209 268 307 302 332 3
160 161 150 198 164 359 83 229 255 268 208 201 203 193 172 169 198 245 213 144 186 170 172 174 179 173 177 183 183 186 182 186 189 181 148 181 168 175 193 194 219 224 246 207 225 275 312 330 309
222 194 181 101 131 98 109 238 295 61 119 175 175 165 186 190 208 183 173 146 155 120 168 172 182 176 179 185 191 188 187 170 147 144 154 173 213 220 185 204 216 202 221 222 232 253 302 297 293
176 167 352 42 144 141 103 6 270 284 172 177 174 202 194 183 213 158 164 133 138 220 172 172 179 186 183 189 191 185 183 180 160 152 169 161 157 212 202 196 210 220 224 238 230 220 259 316 278
286 234 236 141 154 158 136 208 197 207 239 224 205 198 199 197 202 158 171 143 149 216 218 169 174 194 193 194 188 196 195 187 187 168 169 170 166 119 208 208 194 230 246 235 237 249 252 271 266
201 228 222 139 248 187 161 157 197 175 194 195 206 202 205 203 190 157 149 158 158 193 203 200 211 208 204 205 189 183 184 199 192 179 174 175 178 197 188 218 224 230 241 229 248 251 253 266 254
Height
781 782 783 786 803 798 789 782 762 777 778 764 764 775 786 780 799 833 816 820 822 826 829 831 831 832 833 835 836 837 837 837 837 838 838 839 841 841 841 841 842 843 844 843 844 845 843 844 846
780 781 789 795 811 812 796 772 783 779 773 766 772 779 787 804 791 808 818 822 822 825 829 831 832 833 834 835 836 838 839 839 840 840 841 842 842 842 842 844 844 845 848 847 847 848 846 846 848
780 780 790 812 815 810 803 781 778 775 768 771 780 778 789 802 800 807 816 820 823 827 830 831 833 834 835 836 838 839 840 841 842 842 843 843 844 844 846 847 847 848 850 850 849 850 848 848 850
781 778 788 812 815 792 781 776 774 779 777 771 778 797 793 798 804 811 815 819 823 828 830 832 834 835 837 838 840 841 841 842 843 844 845 846 846 848 849 849 850 850 851 852 851 851 850 850 852
780 779 809 814 801 775 772 769 774 780 780 782 786 808 807 804 807 813 820 821 824 829 830 833 835 837 838 839 841 842 843 844 845 846 847 848 849 850 851 852 853 852 853 854 853 853 852 853 854
785 786 818 817 796 776 773 769 772 779 782 789 796 802 809 807 810 815 820 826 827 829 831 833 837 838 839 840 842 843 845 845 846 848 849 851 851 853 855 856 856 857 857 856 856 856 856 856 857
791 804 813 798 787 789 780 770 777 783 782 791 793 809 808 809 811 816 820 827 827 829 831 833 836 838 839 840 842 843 844 846 849 851 852 854 856 858 859 860 860 860 859 859 858 858 858 858 858
787 803 810 800 789 796 774 772 770 778 784 782 787 811 815 810 812 817 821 826 827 830 832 834 836 837 839 840 842 844 846 849 852 853 856 858 859 860 862 860 859 859 860 859 859 859 859 859 860
782 816 818 806 787 785 775 786 772 768 776 782 784 795 799 807 812 816 823 828 829 832 833 835 836 838 840 842 844 847 850 851 851 855 858 860 860 861 862 861 862 863 863 863 862 862 861 860 860
788 801 810 794 790 784 771 775 776 781 781 787 791 796 799 805 811 815 821 826 829 831 835 836 837 839 841 843 846 849 853 854 855 855 858 863 865 865 867 865 868 867 865 868 866 862 862 862 859
788 802 799 788 788 790 772 776 771 782 797 787 795 796 797 803 809 811 815 821 828 831 835 837 838 840 842 843 847 850 851 853 855 857 861 866 870 869 869 868 865 863 863 867 864 864 863 862 861
786 786 788 793 787 786 773 767 778 777 781 780 785 790 795 801 805 808 818 827 829 832 836 839 841 843 843 845 847 850 853 855 855 858 864 867 869 867 870 866 861 860 863 865 865 863 862 862 862
776 772 785 788 784 785 762 770 778 775 772 779 782 788 795 799 803 809 816 825 829 833 836 839 842 845 845 846 849 853 853 855 860 863 863 867 869 869 870 863 863 865 864 864 864 862 862 862 862
765 773 775 786 785 783 772 778 775 781 777 783 784 789 792 796 802 811 817 824 828 832 836 839 842 844 845 848 850 853 854 857 860 863 863 870 870 871 872 868 866 867 867 865 864 865 863 863 863
763 779 769 788 785 779 767 786 787 777 779 787 788 788 791 795 802 808 815 822 826 832 837 839 844 845 847 850 852 853 855 857 860 862 865 867 870 871 873 870 867 868 866 867 868 868 867 865 864
767 770 795 786 782 778 784 804 788 782 782 791 789 788 789 795 801 808 814 821 827 832 837 840 844 846 848 850 853 854 855 858 859 862 865 867 870 871 871 869 870 871 866 870 868 868 868 867 866
782 804 796 795 792 797 781 801 788 783 782 790 790 789 792 797 802 807 813 820 827 832 837 841 844 847 849 852 854 856 857 858 860 863 865 866 869 870 870 870 869 870 870 869 868 867 866 868 868
796 803 791 808 818 806 800 800 798 790 783 787 788 789 792 796 803 808 812 819 826 831 837 842 844 846 849 851 855 857 858 858 861 863 866 869 870 869 869 870 870 868 867 868 868 867 866 867 867
780 792 809 810 821 812 810 803 803 800 798 801 789 792 795 797 799 807 812 820 826 832 836 841 844 847 850 853 855 857 858 860 862 864 866 868 869 870 871 870 869 870 869 869 871 869 868 868 867
785 803 813 818 813 822 825 811 806 807 805 806 804 804 801 796 799 807 813 820 825 831 834 842 844 847 851 853 855 857 859 861 863 865 867 869 869 869 871 872 870 872 871 871 870 871 870 869 868
785 799 809 813 821 826 825 820 814 806 809 806 801 802 803 800 800 806 811 819 825 830 834 840 844 847 851 853 855 857 860 861 864 865 866 868 868 868 869 870 870 870 871 871 872 872 872 871 869
796 785 799 813 818 832 825 833 821 812 809 807 805 802 803 802 803 802 808 815 822 828 831 836 842 847 851 852 855 857 858 861 862 864 865 866 867 868 869 871 869 870 872 873 873 872 873 871 870
792 787 808 811 821 814 828 836 821 816 815 801 794 798 799 802 799 800 805 812 820 825 829 833 839 845 849 851 855 856 857 860 862 864 864 866 867 867 870 870 870 872 872 872 874 875 872 872 872
772 799 812 818 824 836 825 835 823 817 791 785 789 797 799 800 799 803 805 811 818 823 828 832 836 842 847 850 854 855 857 858 860 862 864 864 866 867 869 870 871 873 873 874 875 873 873 871 873
768 799 834 843 844 842 813 828 815 787 785 787 788 794 793 798 800 803 806 811 815 819 827 831 834 839 844 849 851 854 856 858 859 861 863 864 864 865 867 868 871 872 873 872 871 872 873 872 873
771 781 820 831 835 827 806 822 804 770 766 773 783 789 796 800 802 806 804 808 815 819 824 828 833 835 841 846 850 852 855 857 860 860 859 862 861 862 866 869 871 871 871 870 872 874 873 872 872
759 775 756 804 810 818 823 819 798 769 773 772 781 786 795 797 796 804 804 809 813 822 825 826 832 834 838 842 847 850 854 856 859 860 861 860 859 859 862 866 868 869 872 871 871 872 872 871 872
739 736 783 782 827 833 824 828 820 792 788 779 781 784 779 785 791 801 801 810 809 816 827 825 829 832 835 840 845 849 853 857 858 859 858 859 859 860 861 863 865 867 868 868 870 870 872 872 873
751 761 757 770 777 804 827 820 786 784 782 784 775 778 778 783 785 797 801 808 807 822 828 822 823 829 834 837 843 847 849 851 857 857 858 858 858 858 860 862 865 865 866 867 869 870 871 871 872
730 746 753 787 779 777 781 808 769 767 766 767 771 772 773 774 783 795 799 807 811 820 820 816 818 827 832 835 838 843 845 848 853 854 854 855 857 859 860 861 862 864 864 866 868 868 868 868 870